Tracking 19796 objects as of 19-Jul-2019
HD Live streaming from Space Station
objects crossing your sky now

FENGYUN 1C DEB

Track FENGYUN 1C DEB now!
10-day predictions


NORAD ID: 38502
Int'l Code: 1999-025ESM
Perigee: 833.2 km
Apogee: 898.4 km
Inclination: 99.2 °
Period: 102.1 minutes
Semi major axis: 7236 km
RCS: 0.008 m2 (small)
Launch date: May 10, 1999
Source: People's Republic of China (PRC)
Launch site: Taiyaun Space Center, China (TSC)

Note: This is SATELLITE DEBRIS
aabbcc
Your satellite tracking list
Your tracking list is empty




NASA's NSSDC Master Catalog

Two Line Element Set (TLE):
1 38502U 99025ESM 19198.54161059  .00000261  00000-0  17186-3 0  9997
2 38502  99.1602 321.2465 0045053 117.6991 304.9247 14.10201821614898
Source of the keplerian elements: AFSPC